This is the latest recevied weather packets stored in our database for station/object DL3TR-13. If no packets are shown the sender has not sent any weather packets the latest 10 day(s).
| Time | Temp. | Humidity | Pressure | Rain* | Wind** | Luminosity | Snow |
|---|---|---|---|---|---|---|---|
| 1777494192 | 11.11° C | 46% | 1019.4 hPa | 0 mm | - | 0 W/m² | - |
| 1777493592 | 11.11° C | 47% | 1019.3 hPa | 0 mm | - | 0 W/m² | - |
| 1777492992 | 10.56° C | 49% | 1019.3 hPa | 0 mm | - | 0 W/m² | - |
| 1777492392 | 11.11° C | 47% | 1019.2 hPa | 0 mm | - | 0 W/m² | - |
| 1777491792 | 11.67° C | 46% | 1019 hPa | 0 mm | - | 0 W/m² | - |
| 1777491192 | 12.22° C | 45% | 1019 hPa | 0 mm | - | 0 W/m² | - |
| 1777490592 | 11.67° C | 46% | 1018.8 hPa | 0 mm | - | 0 W/m² | - |
| 1777489992 | 12.22° C | 45% | 1018.8 hPa | 0 mm | - | 0 W/m² | - |
| 1777489392 | 12.78° C | 43% | 1018.8 hPa | 0 mm | - | 0 W/m² | - |
| 1777488792 | 12.78° C | 42% | 1018.7 hPa | 0 mm | - | 0 W/m² | - |
| 1777488192 | 13.33° C | 41% | 1018.6 hPa | 0 mm | - | 0 W/m² | - |
| 1777487592 | 13.33° C | 39% | 1018.4 hPa | 0 mm | - | 0 W/m² | - |
| 1777486992 | 13.89° C | 39% | 1018.2 hPa | 0 mm | - | 9 W/m² | - |
| 1777486392 | 13.89° C | 38% | 1018.2 hPa | 0 mm | - | 14 W/m² | - |
| 1777485792 | 14.44° C | 37% | 1018.1 hPa | 0 mm | - | 19 W/m² | - |
| 1777485192 | 14.44° C | 37% | 1018 hPa | 0 mm | - | 25 W/m² | - |
| 1777484592 | 14.44° C | 36% | 1018 hPa | 0 mm | - | 28 W/m² | - |
| 1777483992 | 15° C | 37% | 1017.8 hPa | 0 mm | - | 32 W/m² | - |
| 1777483392 | 15° C | 38% | 1017.7 hPa | 0 mm | - | 35 W/m² | - |
| 1777482792 | 15.56° C | 38% | 1017.5 hPa | 0 mm | - | 39 W/m² | - |
| 1777482192 | 15.56° C | 38% | 1017.4 hPa | 0 mm | - | 42 W/m² | - |
| 1777481592 | 15.56° C | 38% | 1017.4 hPa | 0 mm | - | 46 W/m² | - |
| 1777480992 | 16.11° C | 38% | 1017.5 hPa | 0 mm | - | 49 W/m² | - |
| 1777480392 | 16.11° C | 38% | 1017.4 hPa | 0 mm | - | 54 W/m² | - |
| 1777479792 | 16.11° C | 39% | 1017.3 hPa | 0 mm | - | 295 W/m² | - |
* Rain latest hour (hover to see other rain measurements)
** Current wind speed in m/s (hover to see current wind gust speed)